0 HST
1 20580U 90037B   25214.03585465  .00006073  00000-0  22305-3 0  9995
2 20580  28.4682  94.0393 0001709 235.5856 124.4577 15.25748314739959
0 ISS (ZARYA)
1 25544U 98067A   25214.49566479  .00011663  00000-0  20985-3 0  9998
2 25544  51.6359  77.5427 0002034 138.8478 290.2759 15.50294044522345
0 CXO
1 25867U 99040B   25217.04052865  .00000801  00000-0  00000+0 0  9995
2 25867  50.4588 127.6292 8344692 310.0360   0.6804  0.37799653 27284